Main page
METAR-TAF:

METAR-TAF

Airports :

Militärflugplatz Emmen

Emmen, Switzerland

latitude: 47-05-32N, longitude: 8-18-16E, elevation: 426 m

Current weather observation

The report was made 22 minutes ago, at 16:20 UTC
Wind 3 kt from the North, varying between North/Northwest and East/Northeast
Temperature 15°C
Humidity 33%
Pressure 1020 hPa
Visibility 10 km or more

METAR: LSME 041620Z AUTO 01003KT 330V060 9999NDV NCD 15/M01 Q1020 RMK

Time: 18:42 (16:42 UTC)


TAF: missing

Weather observations and forecasts of more than 4000 airports (METAR and TAF reports).

The available stations are represented by yellow and red dots on the map.

Hover mouse over dot to see the name of the station.

Then click to see weather observations and forecasts.

To change the map : click on the green buttons with a black cross to zoom in, on the green button with a dash to zoom out, or on the green arrows for adjacent maps.


METAR-TAF: